Location: Bower School (historical)
(37.8389°N, 89.5348°W)
Time: 04:16:13
(UTC+00:00)

CZ-2D R/B - Pass Details

Date: 11 December 2025
Orbit: 396 x 403 km, 97.4° (Epoch: 21 January)

Event Time Altitude Azimuth Distance (km) Brightness Sun altitude
Rises 12:23:49 0° 12° (NNE) 2,382 6.5 -7.9°
Reaches altitude 10° 12:25:50 10° 13° (NNE) 1,514 5.5 -7.6°
Maximum altitude 12:29:04 84° 102° (ESE) 429 2.8 -7.0°
Drops below altitude 10° 12:32:17 10° 191° (S) 1,500 5.7 -6.4°
Sets 12:34:16 0° 192° (SSW) 2,357 6.7 -6.0°
